Location: Newark
(15.4608°S, 41.1635°W)
Time: 15:52:11
(UTC+00:00)

Vanguard 2 - All Passes

Search period start: 27 February 2021 00:00
Search period end: 09 March 2021 00:00
Orbit: 552 x 2938 km, 32.9° (Epoch: 26 February)

Date Brightness Start Highest point End Pass type
(mag) Time Alt. Az. Time Alt. Az. Time Alt. Az.
27 Feb - 00:21:30 10° SSW 00:26:00 26° SSE 00:32:24 10° E visible
27 Feb - 02:28:17 10° WSW 02:35:12 88° NNW 02:47:12 10° ENE night (unlit)
27 Feb - 04:37:44 10° W 04:46:11 32° NNW 04:58:36 10° NNE visible
27 Feb - 06:57:43 10° NNW 06:59:50 10° NNW 07:02:02 10° NNW visible
27 Feb - 15:58:44 10° NNW 16:06:13 30° NNE 16:11:15 10° E daylight
27 Feb - 18:09:05 10° WNW 18:15:14 56° SSW 18:19:31 10° SE daylight
27 Feb - 20:23:04 10° SSW 20:24:00 11° SSW 20:24:57 10° S daylight
28 Feb - 00:38:56 10° SW 00:43:52 36° SSE 00:51:27 10° E visible
28 Feb - 02:46:08 10° WSW 02:53:09 65° NNW 03:05:07 10° NE night (unlit)
28 Feb - 04:56:53 10° WNW 05:04:38 23° NNW 05:15:09 10° NNE visible
28 Feb - 14:08:32 10° N 14:13:25 14° NNE 14:17:27 10° NE daylight
28 Feb - 16:15:55 10° NW 16:24:19 46° NNE 16:29:36 10° ESE daylight
28 Feb - 18:27:34 10° W 18:33:00 35° SSW 18:36:59 10° SE daylight
28 Feb - 22:50:49 10° S 22:52:38 12° SSE 22:54:38 10° SE visible
01 Mar - 00:56:24 10° SW 01:01:40 52° SSE 01:10:10 10° ENE night (unlit)
01 Mar - 03:04:13 10° WSW 03:11:13 46° NNW 03:22:40 10° NE night (unlit)
01 Mar - 05:17:00 10° WNW 05:23:14 16° NNW 05:30:56 10° N visible
01 Mar - 14:24:04 10° NNW 14:31:55 21° NNE 14:37:37 10° ENE daylight
01 Mar - 16:33:32 10° NW 16:42:17 71° NNE 16:47:35 10° ESE daylight
01 Mar - 18:46:24 10° W 18:50:50 23° SSW 18:54:19 10° SSE daylight
01 Mar - 23:07:49 10° SSW 23:10:43 16° SSE 23:14:13 10° ESE visible
02 Mar - 01:14:00 10° SW 01:19:28 76° SSE 01:28:34 10° ENE night (unlit)
02 Mar - 03:22:39 10° W 03:29:26 33° NNW 03:39:49 10° NNE night (unlit)
02 Mar - 05:40:19 10° NNW 05:42:04 10° NNW 05:43:54 10° NNW visible
02 Mar - 14:40:37 10° NNW 14:50:16 30° NNE 14:56:38 10° E daylight
02 Mar - 16:51:32 10° WNW 17:00:07 78° SSW 17:05:21 10° SE daylight
02 Mar - 19:05:35 10° WSW 19:08:46 16° SSW 19:11:30 10° SSE daylight
02 Mar - 23:25:01 10° SSW 23:28:40 23° SSE 23:33:25 10° E visible
03 Mar - 01:31:44 10° WSW 01:37:18 74° NNW 01:46:36 10° NE night (unlit)
03 Mar - 03:41:34 10° WNW 03:47:46 23° NNW 03:56:28 10° NNE night (unlit)
03 Mar - 12:49:52 10° N 12:56:34 15° NNE 13:02:05 10° NE daylight
03 Mar - 14:57:42 10° NW 15:08:29 44° NNE 15:15:06 10° E daylight
03 Mar - 17:09:53 10° WNW 17:17:53 52° SSW 17:22:56 10° SE daylight
03 Mar - 19:25:15 10° SW 19:26:52 11° SSW 19:28:23 10° S daylight
03 Mar - 23:42:22 10° SW 23:46:29 35° SSE 23:52:16 10° E visible
04 Mar - 01:49:42 10° WSW 01:55:15 49° NNW 02:04:16 10° NE night (unlit)
04 Mar - 04:01:28 10° WNW 04:06:16 15° NNW 04:12:17 10° N night (unlit)
04 Mar - 13:05:27 10° NNW 13:15:11 22° NNE 13:22:24 10° ENE daylight
04 Mar - 15:15:12 10° NW 15:26:32 62° NNE 15:33:12 10° ESE daylight
04 Mar - 17:28:35 10° W 17:35:40 35° SSW 17:40:24 10° SE daylight
04 Mar - 21:54:29 10° S 21:55:28 11° SSE 21:56:30 10° SSE visible
04 Mar - 23:59:50 10° SW 00:04:15 56° SSE 00:10:47 10° ENE visible
05 Mar - 02:08:00 10° W 02:13:21 32° NNW 02:21:31 10° NNE night (unlit)
05 Mar - 13:21:55 10° NNW 13:33:38 31° NNE 13:41:38 10° E daylight
05 Mar - 15:33:05 10° NW 15:44:29 86° NNE 15:51:04 10° ESE daylight
05 Mar - 17:47:36 10° W 17:53:32 25° SSW 17:57:47 10° SSE daylight
05 Mar - 22:11:06 10° SSW 22:13:34 15° SSE 22:16:15 10° ESE visible
06 Mar - 00:17:28 10° WSW 00:22:01 89° NNW 00:28:56 10° ENE visible
06 Mar - 02:26:47 10° WNW 02:31:35 21° NNW 02:38:14 10° NNE night (unlit)
06 Mar - 11:31:18 10° N 11:39:03 15° NNE 11:45:40 10° ENE daylight
06 Mar - 13:38:53 10° NW 13:51:56 42° NNE 14:00:15 10° E daylight
06 Mar - 15:51:18 10° WNW 16:02:20 69° SSW 16:08:46 10° SE daylight
06 Mar - 18:06:50 10° WSW 18:11:31 19° SSW 18:15:08 10° SSE daylight
06 Mar - 22:28:15 10° SSW 22:31:32 23° SSE 22:35:17 10° E visible
07 Mar - 00:35:20 10° WSW 00:39:52 54° NNW 00:46:42 10° NE night (unlit)
07 Mar - 02:46:37 10° NW 02:49:57 13° NNW 02:53:57 10° N night (unlit)
07 Mar - 11:46:44 10° NNW 11:57:46 22° NNE 12:06:26 10° ENE daylight
07 Mar - 13:56:14 10° NW 14:10:06 57° NNE 14:18:31 10° ESE daylight
07 Mar - 16:09:53 10° WNW 16:20:08 50° SSW 16:26:20 10° SE daylight
07 Mar - 18:26:16 10° SW 18:29:39 14° SSW 18:32:28 10° SSE daylight
07 Mar - 22:45:36 10° SW 22:49:21 37° SSE 22:53:56 10° E visible
08 Mar - 00:53:31 10° W 00:57:50 32° NNW 01:04:02 10° NNE night (unlit)
08 Mar - 12:03:03 10° NNW 12:16:17 30° NNE 12:26:00 10° E daylight
08 Mar - 14:13:57 10° NW 14:28:08 76° NNE 14:36:30 10° ESE daylight
08 Mar - 16:28:46 10° W 16:38:00 37° SSW 16:43:51 10° SE daylight
08 Mar - 18:45:41 10° SW 18:47:55 12° SSW 18:49:53 10° S daylight
08 Mar - 20:56:38 10° S 20:58:21 12° SSE 21:00:02 10° SE daylight
08 Mar - 23:03:08 10° SW 23:07:07 67° SSE 23:12:12 10° ENE visible
